Regional Weather Roundup
Issued by NWS

Home | Current Version | Previous Version | Graphics & Text | Print | Product List | Glossary On
Versions: 1 2 3 4 5 6 7 8 9 10 11 12 13 14 15 16 17 18 19 20 21 22 23 24 25 26 27 28 29 30 31 32 33 34 35 36 37 38 39 40 41 42 43 44 45 46 47 48 49 50
000
ASUS45 KABQ 172210
RWRNM
WEATHER ROUNDUP FOR NEW MEXICO
NATIONAL WEATHER SERVICE ALBUQUERQUE NM
400 PM MDT WED SEP 17 2014

NOTE: "FAIR" MEANS FEW OR NO CLOUDS BELOW 12,000 FEET AGL WITH NO
       SIGNIFICANT WEATHER OR OBSTRUCTIONS TO VISION.

      THIS PRODUCT IS RELEASED AS TWO VERSIONS.  ONE VERSION NEAR
      THE TOP OF THE HOUR CONTAINING PRELIMINARY DATA FROM ALBUQUERQUE
      AND OTHER STATIONS.  A FINAL VERSION WITH ADDITIONAL DATA IS
      ISSUED ABOUT 10 MINUTES AFTER THE HOUR.

NMZ501-503-504-510>518-172300-
NORTHWEST PLATEAU/NORTHCENTRAL MOUNTAINS

CITY           SKY/WX    TMP DP  RH WIND       PRES   REMARKS
FARMINGTON     SUNNY     79  48  33 SE7       30.06F
LOS ALAMOS     CLOUDY    65  46  50 S9        30.22F
SANTA FE       CLOUDY    65  52  62 SW5       30.18F
TAOS           CLOUDY    66  48  52 SW10      30.20F
ANGEL FIRE     FAIR      68  34  28 E7        30.27F

$$
NMZ402-403-502-505>509-172300-
WESTCENTRAL MOUNTAINS/SOUTHWEST MOUNTAINS

CITY           SKY/WX    TMP DP  RH WIND       PRES   REMARKS
GALLUP         CLOUDY    73  42  32 E14       30.15F
GRANTS         CLOUDY    66  52  59 SE9       30.20F
SILVER CITY    CLOUDY    70  63  78 SE7       30.09F

$$
NMZ407-409-411-412-172300-
SOUTHERN DESERTS

CITY           SKY/WX    TMP DP  RH WIND       PRES   REMARKS
LORDSBURG      HVY RAIN  64  61  88 SW13G31   30.02R
DEMING         CLOUDY    76  63  64 E6        29.99F
LAS CRUCES     PTSUNNY   78  62  57 CALM      30.02F
HOLLOMAN AFB   PTSUNNY   77  64  62 CALM      30.00F
ALAMOGORDO     CLOUDY    79  61  53 E3        30.02F
T OR C         PTSUNNY   76  59  55 SE8       30.05F

$$
NMZ519>523-172300-
CENTRAL VALLEYS/CENTRAL HIGHLANDS

CITY           SKY/WX    TMP DP  RH WIND       PRES   REMARKS
ALBUQUERQUE    CLOUDY    68  59  73 N8        30.13F
DOUBLE EAGLE   CLOUDY    66  55  68 N5        30.16F
MORIARTY ARPT  LGT RAIN  68  53  58 NW6       30.17F
CLINES CORNERS CLOUDY    66  50  56 W5        30.19F
BELEN          MOCLDY    68  60  74 N6        30.12F
SOCORRO        FAIR      72  61  68 N9        30.09F

$$
NMZ524>526-539-540-172300-
SOUTHCENTRAL MOUNTAINS

CITY           SKY/WX    TMP DP  RH WIND       PRES   REMARKS
RUIDOSO        PTSUNNY   64  57  77 NE7       30.20F

$$
NMZ527>531-172300-
NORTHEAST HIGHLANDS/NORTHEAST PLAINS

CITY           SKY/WX    TMP DP  RH WIND       PRES   REMARKS
LAS VEGAS      CLOUDY    67  49  52 S13       30.17F
RATON          CLOUDY    76  45  33 SW9       30.11F
CLAYTON        CLOUDY    76  55  48 SW14      30.04F

$$
NMZ532>537-172300-
EASTCENTRAL PLAINS

CITY           SKY/WX    TMP DP  RH WIND       PRES   REMARKS
TUCUMCARI      CLOUDY    75  59  57 SW14      30.00F
CANNON AFB     DRIZZLE   66  64  94 W2        30.05F
CLOVIS AIRPORT   N/A     66  63  88 W9        30.07F

$$
NMZ028-029-538-172300-
SOUTHEAST PLAINS

CITY           SKY/WX    TMP DP  RH WIND       PRES   REMARKS
ROSWELL        PTSUNNY   77  64  64 NE5       30.01F
CARLSBAD       LGT RAIN  79  71  76 NE3       29.95F
HOBBS          MOSUNNY   82  63  51 S8        29.99F


$$



USA.gov is the U.S. government's official web portal to all federal, state and local government web resources and services.